Regional Weather Roundup
Issued by NWS

Home | Current Version | Previous Version | Text Only | Print | Product List | Glossary Off
Versions: 1 2 3 4 5 6 7 8 9 10 11 12 13 14 15 16 17 18 19 20 21 22 23 24 25 26 27 28 29 30 31 32 33 34 35 36 37 38 39 40 41 42 43 44 45 46 47 48 49 50

000
ASUS43 KFSD 261402
RWRSD

WEATHER ROUNDUP FOR SOUTH DAKOTA
NATIONAL WEATHER SERVICE SIOUX FALLS SD
900 AM CDT TUE JUL 26 2016

NOTE: "FAIR" INDICATES FEW OR NO CLOUDS BELOW 12,000 FEET WITH NO
SIGNIFICANT WEATHER AND/OR OBSTRUCTIONS TO VISIBILITY.


SDZ001>005-009-010-012>017-261500-
NORTHWEST AND NORTH CENTRAL SOUTH DAKOTA

CITY           SKY/WX    TMP DP  RH WIND       PRES   REMARKS
BUFFALO          N/A     66  61  84 E24       29.99F
FAITH            N/A     74  57  55 NW24G39   30.05R
MOBRIDGE       SUNNY     79  65  62 S9        29.94S
$$

SDZ012>016-024>037-041>051-057-063-072>074-261500-
SOUTHWEST AND SOUTH CENTRAL SOUTH DAKOTA

CITY           SKY/WX    TMP DP  RH WIND       PRES   REMARKS
RAPID CTY ARPT CLOUDY    66  59  78 N18       30.06R THUNDER
PIERRE         SUNNY     79  65  62 S8        29.97S
CUSTER         CLOUDY    66  52  60 N7        30.17R
ELLSWORTH AFB  TSTM      68  59  73 N18       30.04R
PHILIP         PTSUNNY   78  65  63 W14       30.03R
PINE RIDGE     SUNNY     74  66  76 SW16G23   30.02R
WINNER         FAIR      79  63  57 S21G30    30.02S
$$

SDZ004>011-016>023-039-040-261500-
NORTHEAST SOUTH DAKOTA

CITY           SKY/WX    TMP DP  RH WIND       PRES   REMARKS
ABERDEEN       TSTM      69  63  81 SE13      30.02S
WATERTOWN      SUNNY     76  63  64 SW10      30.05S
BROOKINGS      SUNNY     73  65  75 SW9       30.06R
SISSETON         N/A     76  63  64 W15       29.96F
$$

SDZ017-020-022-023-036>040-048>070-261500-
SOUTHEAST SOUTH DAKOTA

CITY           SKY/WX    TMP DP  RH WIND       PRES   REMARKS
SIOUX FALLS    MOSUNNY   76  65  68 SW13      30.06F
HURON          SUNNY     73  63  70 S9        30.02R
CHAMBERLAIN    SUNNY     79  67  67 S10       30.02R
MITCHELL       SUNNY     74  64  71 S9        30.03S
YANKTON        SUNNY     72  64  78 E3        30.04F
$$

ABBREVIATIONS USED IN REMARKS
   TC - TEMPERATURE IN CELSIUS
  WCI - WIND CHILL INDEX
   HX - HEAT INDEX
  VSB - VISIBILITY




USA.gov is the U.S. government's official web portal to all federal, state and local government web resources and services.